Kezdőlap
METAR-TAF:

METAR-TAF

Repülőterek :

Oelwein Municipal Airport

Oelwein, Iowa, Amerikai Egyesült Államok

földrajzi szélesség: 42-40-51N, földrajzi hosszúság: 091-58-28W, magasság: 328 m

Jelenlegi meteorológiai megfigyelések

A jelentés 14 perccel ezelõtt készült, 16:55 UTC
Kelet-északkeleti szél 7 kt széllökések: 14 kt, észak-északkeleti és keleti között változik
Hőmérséklet 12°C
Páratartalom 32%
Légköri nyomás 1029 hPa
Látótávolság: 16.1 km
Derült ég

METAR: KOLZ 111655Z AUTO 07007G14KT 030V090 10SM CLR 12/M04 A3039 RMK A01

Idő: 12:09 (17:09 UTC)


TAF: hiányzik

Meteorológiai megfigyelések és előrejelzések több, mint 4000 repülőtéren (METAR és TAF jelentéseket).

A térképen piros és sárga pontok jelzik az elérhető meteorológiai állomásokat.

Mozgassa az egeret a pont fölött, hogy megjelenjen az állomás neve.

Azután kattintson az időjárási megfigyelések és előrejelzések megtekintéséhez.

A térkép megváltoztatása: kattintson a fekete keresztel jelölt zöld gombra ráközelítéshez, a vonallal jelölt zöld gombra távolításhoz, vagy a zöld nyilakra a szomszédos térképek eléréséhez.


METAR-TAF: